Bloomington, IL

10:40 AM CST on November 18, 2017 (GMT -0600)
Central Ill Regional

Weather History for KBMI - September, 2012

Change the Weather History Date:

Thursday, September 13, 2012

  Actual Average Record
Temperature  
Mean Temperature 66 °F -  
Max Temperature 81 °F 83 °F 92 °F (1978)
Min Temperature 54 °F 66 °F 37 °F (2014)
Cooling Degree Days 2    
Growing Degree Days 16 (Base 50)    
Moisture  
Dew Point 56 °F    
Average Humidity 75    
Maximum Humidity 100    
Minimum Humidity 42    
Precipitation  
Precipitation 0.00 in - - ()
Sea Level Pressure  
Sea Level Pressure 30.23 in    
Wind  
Wind Speed 10 mph (West)    
Max Wind Speed 21 mph    
Max Gust Speed -    
Visibility 10 miles    
Events Rain    
Averages and records for this station are not official NWS values.
T = Trace of Precipitation, MM = Missing Value Source: NWS Daily Summary

Daily Weather History Graph

Daily Weather History Graph

Search for Another Location

Airport or City:

Trip Planner

Search our weather history database for the weather conditions in past years. The results will help you decide how hot, cold, wet, or windy it might be!

Date:

Astronomy

Sep. 13, 2012 Rise Set
Actual Time 6:34 AM CDT 7:07 PM CDT
Civil Twilight 6:07 AM CDT 7:34 PM CDT
Nautical Twilight 5:35 AM CDT 8:06 PM CDT
Astronomical Twilight 5:01 AM CDT 8:39 PM CDT
Moon 3:53 AM CDT (9/13) 5:30 PM CDT (9/13)
Length of Visible Light 13h 26m
Length of Day
12h 32m
Waning Crescent, 7% of the Moon is Illuminated
Sep 13
Waning Crescent
Sep 15
New
Sep 22
First Quarter
Sep 29
Full
Oct 8
Last Quarter

Hourly Weather History & Observations

Time (CDT) Temp. Dew Point Humidity Pressure Visibility Wind Dir Wind Speed Gust Speed Precip Events Conditions
12:56 AM 61.9 °F 56.8 °F 84% 30.17 in 10.0 mi SSW 5.8 mph - N/A   Partly Cloudy
1:56 AM 63.9 °F 56.8 °F 78% 30.17 in 10.0 mi SSW 8.1 mph - N/A   Partly Cloudy
2:56 AM 61.9 °F 56.8 °F 84% 30.18 in 10.0 mi SSW 8.1 mph - N/A   Clear
3:56 AM 61.9 °F 56.8 °F 84% 30.18 in 10.0 mi SSW 9.2 mph - N/A   Mostly Cloudy
4:56 AM 61.0 °F 56.8 °F 86% 30.19 in 10.0 mi SSW 8.1 mph - N/A   Partly Cloudy
5:56 AM 57.9 °F 55.9 °F 93% 30.20 in 10.0 mi South 6.9 mph - N/A   Clear
6:56 AM 59.0 °F 56.8 °F 93% 30.22 in 10.0 mi South 5.8 mph - N/A   Clear
7:56 AM 63.0 °F 59.9 °F 90% 30.22 in 10.0 mi South 8.1 mph - N/A   Clear
8:56 AM 68.0 °F 61.9 °F 81% 30.23 in 10.0 mi SW 9.2 mph - N/A   Clear
9:56 AM 72.0 °F 61.0 °F 68% 30.23 in 10.0 mi WSW 8.1 mph - N/A   Clear
10:56 AM 73.9 °F 59.9 °F 61% 30.23 in 10.0 mi Variable 3.5 mph - N/A   Clear
11:56 AM 79.0 °F 59.9 °F 52% 30.21 in 10.0 mi Variable 4.6 mph - N/A   Clear
12:56 PM 79.0 °F 54.9 °F 43% 30.20 in 10.0 mi West 8.1 mph - N/A   Scattered Clouds
1:56 PM 79.9 °F 54.9 °F 42% 30.18 in 10.0 mi SW 3.5 mph - N/A   Partly Cloudy
2:34 PM 77.0 °F 59.0 °F 54% 30.20 in 10.0 mi North 15.0 mph - N/A   Scattered Clouds
2:56 PM 75.9 °F 57.9 °F 54% 30.18 in 10.0 mi NNW 17.3 mph - N/A   Scattered Clouds
3:56 PM 70.0 °F 52.9 °F 55% 30.21 in 10.0 mi North 20.7 mph - N/A   Scattered Clouds
4:56 PM 63.9 °F 50.0 °F 61% 30.24 in 10.0 mi North 19.6 mph - N/A   Scattered Clouds
5:56 PM 59.9 °F 47.8 °F 64% 30.26 in 10.0 mi North 18.4 mph - N/A   Mostly Cloudy
6:56 PM 56.8 °F 50.0 °F 78% 30.27 in 10.0 mi North 19.6 mph - N/A   Mostly Cloudy
7:56 PM 56.8 °F 50.9 °F 80% 30.28 in 10.0 mi NNE 13.8 mph - N/A   Mostly Cloudy
8:56 PM 55.9 °F 54.0 °F 93% 30.31 in 10.0 mi NNE 16.1 mph - 0.00 in   Mostly Cloudy
9:56 PM 55.9 °F 54.0 °F 93% 30.30 in 10.0 mi NNE 16.1 mph - 0.00 in Rain Light Rain
10:56 PM 54.9 °F 54.0 °F 97% 30.31 in 10.0 mi North 16.1 mph - 0.00 in Rain Light Rain
11:56 PM 54.0 °F 54.0 °F 100% 30.31 in 6.0 mi NNE 13.8 mph - 0.00 in Rain Light Rain